﻿測定場所 (Monitoring sites),日付 (Measurement date),時間 (Measurement time),線量率 最大値 (max) μGy/h,線量率 最小値 (min) μGy/h,線量率 平均値 (average) μGy/h,
江戸川 (Edogawa),2013-11-24,23:01～24:00,0.0872,0.0767,0.0821,
江戸川 (Edogawa),2013-11-24,22:01～23:00,0.0885,0.0766,0.0827,
江戸川 (Edogawa),2013-11-24,21:01～22:00,0.0864,0.0760,0.0820,
江戸川 (Edogawa),2013-11-24,20:01～21:00,0.0858,0.0763,0.0820,
江戸川 (Edogawa),2013-11-24,19:01～20:00,0.0921,0.0772,0.0825,
江戸川 (Edogawa),2013-11-24,18:01～19:00,0.0879,0.0742,0.0818,
江戸川 (Edogawa),2013-11-24,17:01～18:00,0.0883,0.0773,0.0827,
江戸川 (Edogawa),2013-11-24,16:01～17:00,0.0904,0.0775,0.0833,
江戸川 (Edogawa),2013-11-24,15:01～16:00,0.0868,0.0778,0.0825,
江戸川 (Edogawa),2013-11-24,14:01～15:00,0.0888,0.0768,0.0837,
江戸川 (Edogawa),2013-11-24,13:01～14:00,0.0868,0.0784,0.0834,
江戸川 (Edogawa),2013-11-24,12:01～13:00,0.0919,0.0798,0.0841,
江戸川 (Edogawa),2013-11-24,11:01～12:00,0.0911,0.0778,0.0836,
江戸川 (Edogawa),2013-11-24,10:01～11:00,0.0922,0.0779,0.0838,
江戸川 (Edogawa),2013-11-24,09:01～10:00,0.0892,0.0793,0.0832,
江戸川 (Edogawa),2013-11-24,08:01～09:00,0.0878,0.0768,0.0827,
江戸川 (Edogawa),2013-11-24,07:01～08:00,0.0878,0.0772,0.0828,
江戸川 (Edogawa),2013-11-24,06:01～07:00,0.0880,0.0775,0.0827,
江戸川 (Edogawa),2013-11-24,05:01～06:00,0.0904,0.0751,0.0828,
江戸川 (Edogawa),2013-11-24,04:01～05:00,0.0894,0.0771,0.0826,
江戸川 (Edogawa),2013-11-24,03:01～04:00,0.0886,0.0766,0.0826,
江戸川 (Edogawa),2013-11-24,02:01～03:00,0.0874,0.0770,0.0823,
江戸川 (Edogawa),2013-11-24,01:01～02:00,0.0897,0.0783,0.0830,
江戸川 (Edogawa),2013-11-24,00:01～01:00,0.0883,0.0777,0.0829,
江戸川 (Edogawa),2013-11-23,23:01～24:00,0.0874,0.0769,0.0822,
江戸川 (Edogawa),2013-11-23,22:01～23:00,0.0901,0.0763,0.0826,
江戸川 (Edogawa),2013-11-23,21:01～22:00,0.0873,0.0758,0.0825,
江戸川 (Edogawa),2013-11-23,20:01～21:00,0.0885,0.0769,0.0824,
江戸川 (Edogawa),2013-11-23,19:01～20:00,0.0888,0.0766,0.0823,
江戸川 (Edogawa),2013-11-23,18:01～19:00,0.0868,0.0760,0.0821,
江戸川 (Edogawa),2013-11-23,17:01～18:00,0.0891,0.0759,0.0823,
江戸川 (Edogawa),2013-11-23,16:01～17:00,0.0907,0.0748,0.0823,
江戸川 (Edogawa),2013-11-23,15:01～16:00,0.0902,0.0785,0.0831,
江戸川 (Edogawa),2013-11-23,14:01～15:00,0.0886,0.0794,0.0832,
江戸川 (Edogawa),2013-11-23,13:01～14:00,0.0884,0.0747,0.0835,
江戸川 (Edogawa),2013-11-23,12:01～13:00,0.0891,0.0770,0.0830,
江戸川 (Edogawa),2013-11-23,11:01～12:00,0.0866,0.0757,0.0824,
江戸川 (Edogawa),2013-11-23,10:01～11:00,0.0881,0.0780,0.0827,
江戸川 (Edogawa),2013-11-23,09:01～10:00,0.0895,0.0766,0.0817,
江戸川 (Edogawa),2013-11-23,08:01～09:00,0.0910,0.0745,0.0818,
江戸川 (Edogawa),2013-11-23,07:01～08:00,0.0863,0.0770,0.0818,
江戸川 (Edogawa),2013-11-23,06:01～07:00,0.0870,0.0757,0.0815,
江戸川 (Edogawa),2013-11-23,05:01～06:00,0.0860,0.0781,0.0821,
江戸川 (Edogawa),2013-11-23,04:01～05:00,0.0877,0.0744,0.0821,
江戸川 (Edogawa),2013-11-23,03:01～04:00,0.0874,0.0773,0.0818,
江戸川 (Edogawa),2013-11-23,02:01～03:00,0.0880,0.0744,0.0819,
江戸川 (Edogawa),2013-11-23,01:01～02:00,0.0876,0.0779,0.0822,
江戸川 (Edogawa),2013-11-23,00:01～01:00,0.0896,0.0751,0.0821,
江戸川 (Edogawa),2013-11-22,23:01～24:00,0.0894,0.0756,0.0827,
江戸川 (Edogawa),2013-11-22,22:01～23:00,0.0888,0.0757,0.0829,
江戸川 (Edogawa),2013-11-22,21:01～22:00,0.0889,0.0752,0.0825,
江戸川 (Edogawa),2013-11-22,20:01～21:00,0.0899,0.0767,0.0827,
江戸川 (Edogawa),2013-11-22,19:01～20:00,0.0872,0.0773,0.0818,
江戸川 (Edogawa),2013-11-22,18:01～19:00,0.0893,0.0763,0.0820,
江戸川 (Edogawa),2013-11-22,17:01～18:00,0.0892,0.0774,0.0830,
江戸川 (Edogawa),2013-11-22,16:01～17:00,0.0900,0.0780,0.0835,
江戸川 (Edogawa),2013-11-22,15:01～16:00,0.0889,0.0796,0.0837,
江戸川 (Edogawa),2013-11-22,14:01～15:00,0.0886,0.0783,0.0836,
江戸川 (Edogawa),2013-11-22,13:01～14:00,0.0893,0.0775,0.0838,
江戸川 (Edogawa),2013-11-22,12:01～13:00,0.0930,0.0796,0.0843,
江戸川 (Edogawa),2013-11-22,11:01～12:00,0.0915,0.0792,0.0842,
江戸川 (Edogawa),2013-11-22,10:01～11:00,0.0893,0.0797,0.0838,
江戸川 (Edogawa),2013-11-22,09:01～10:00,0.0880,0.0788,0.0833,
江戸川 (Edogawa),2013-11-22,08:01～09:00,0.0889,0.0789,0.0830,
江戸川 (Edogawa),2013-11-22,07:01～08:00,0.0890,0.0766,0.0832,
江戸川 (Edogawa),2013-11-22,06:01～07:00,0.0862,0.0767,0.0818,
江戸川 (Edogawa),2013-11-22,05:01～06:00,0.0887,0.0788,0.0829,
江戸川 (Edogawa),2013-11-22,04:01～05:00,0.0877,0.0767,0.0823,
江戸川 (Edogawa),2013-11-22,03:01～04:00,0.0869,0.0771,0.0820,
江戸川 (Edogawa),2013-11-22,02:01～03:00,0.0875,0.0766,0.0816,
江戸川 (Edogawa),2013-11-22,01:01～02:00,0.0870,0.0775,0.0819,
江戸川 (Edogawa),2013-11-22,00:01～01:00,0.0885,0.0753,0.0826,
江戸川 (Edogawa),2013-11-21,23:01～24:00,0.0884,0.0786,0.0823,
江戸川 (Edogawa),2013-11-21,22:01～23:00,0.0875,0.0782,0.0825,
江戸川 (Edogawa),2013-11-21,21:01～22:00,0.0867,0.0761,0.0825,
江戸川 (Edogawa),2013-11-21,20:01～21:00,0.0879,0.0769,0.0827,
江戸川 (Edogawa),2013-11-21,19:01～20:00,0.0871,0.0762,0.0824,
江戸川 (Edogawa),2013-11-21,18:01～19:00,0.0866,0.0772,0.0820,
江戸川 (Edogawa),2013-11-21,17:01～18:00,0.0896,0.0780,0.0824,
江戸川 (Edogawa),2013-11-21,16:01～17:00,0.0880,0.0783,0.0830,
江戸川 (Edogawa),2013-11-21,15:01～16:00,0.0893,0.0761,0.0834,
江戸川 (Edogawa),2013-11-21,14:01～15:00,0.0888,0.0787,0.0836,
江戸川 (Edogawa),2013-11-21,13:01～14:00,0.0882,0.0793,0.0834,
江戸川 (Edogawa),2013-11-21,12:01～13:00,0.0891,0.0776,0.0837,
江戸川 (Edogawa),2013-11-21,11:01～12:00,0.0894,0.0794,0.0844,
江戸川 (Edogawa),2013-11-21,10:01～11:00,0.0902,0.0784,0.0839,
江戸川 (Edogawa),2013-11-21,09:01～10:00,0.0874,0.0770,0.0828,
江戸川 (Edogawa),2013-11-21,08:01～09:00,0.0867,0.0763,0.0823,
江戸川 (Edogawa),2013-11-21,07:01～08:00,0.0902,0.0751,0.0823,
江戸川 (Edogawa),2013-11-21,06:01～07:00,0.0888,0.0758,0.0819,
江戸川 (Edogawa),2013-11-21,05:01～06:00,0.0868,0.0777,0.0820,
江戸川 (Edogawa),2013-11-21,04:01～05:00,0.0917,0.0766,0.0820,
江戸川 (Edogawa),2013-11-21,03:01～04:00,0.0890,0.0763,0.0824,
江戸川 (Edogawa),2013-11-21,02:01～03:00,0.0866,0.0759,0.0821,
江戸川 (Edogawa),2013-11-21,01:01～02:00,0.0878,0.0780,0.0825,
江戸川 (Edogawa),2013-11-21,00:01～01:00,0.0872,0.0779,0.0820,
江戸川 (Edogawa),2013-11-20,23:01～24:00,0.0894,0.0752,0.0824,
江戸川 (Edogawa),2013-11-20,22:01～23:00,0.0874,0.0765,0.0821,
江戸川 (Edogawa),2013-11-20,21:01～22:00,0.0909,0.0773,0.0826,
江戸川 (Edogawa),2013-11-20,20:01～21:00,0.0892,0.0776,0.0826,
江戸川 (Edogawa),2013-11-20,19:01～20:00,0.0905,0.0743,0.0825,
江戸川 (Edogawa),2013-11-20,18:01～19:00,0.0865,0.0779,0.0823,
江戸川 (Edogawa),2013-11-20,17:01～18:00,0.0878,0.0755,0.0815,
江戸川 (Edogawa),2013-11-20,16:01～17:00,0.0882,0.0780,0.0826,
江戸川 (Edogawa),2013-11-20,15:01～16:00,0.0884,0.0759,0.0834,
江戸川 (Edogawa),2013-11-20,14:01～15:00,0.0900,0.0766,0.0833,
江戸川 (Edogawa),2013-11-20,13:01～14:00,0.0890,0.0793,0.0837,
江戸川 (Edogawa),2013-11-20,12:01～13:00,0.0894,0.0774,0.0834,
江戸川 (Edogawa),2013-11-20,11:01～12:00,0.0898,0.0774,0.0834,
江戸川 (Edogawa),2013-11-20,10:01～11:00,0.0909,0.0776,0.0837,
江戸川 (Edogawa),2013-11-20,09:01～10:00,0.0894,0.0772,0.0832,
江戸川 (Edogawa),2013-11-20,08:01～09:00,0.0902,0.0773,0.0820,
江戸川 (Edogawa),2013-11-20,07:01～08:00,0.0877,0.0766,0.0823,
江戸川 (Edogawa),2013-11-20,06:01～07:00,0.0880,0.0765,0.0821,
江戸川 (Edogawa),2013-11-20,05:01～06:00,0.0882,0.0777,0.0817,
江戸川 (Edogawa),2013-11-20,04:01～05:00,0.0898,0.0770,0.0818,
江戸川 (Edogawa),2013-11-20,03:01～04:00,0.0899,0.0760,0.0823,
江戸川 (Edogawa),2013-11-20,02:01～03:00,0.0927,0.0754,0.0822,
江戸川 (Edogawa),2013-11-20,01:01～02:00,0.0866,0.0757,0.0823,
江戸川 (Edogawa),2013-11-20,00:01～01:00,0.0882,0.0762,0.0825,
江戸川 (Edogawa),2013-11-19,23:01～24:00,0.0887,0.0749,0.0819,
江戸川 (Edogawa),2013-11-19,22:01～23:00,0.0876,0.0774,0.0822,
江戸川 (Edogawa),2013-11-19,21:01～22:00,0.0891,0.0765,0.0822,
江戸川 (Edogawa),2013-11-19,20:01～21:00,0.0874,0.0779,0.0822,
江戸川 (Edogawa),2013-11-19,19:01～20:00,0.0891,0.0760,0.0827,
江戸川 (Edogawa),2013-11-19,18:01～19:00,0.0880,0.0756,0.0826,
江戸川 (Edogawa),2013-11-19,17:01～18:00,0.0877,0.0761,0.0819,
江戸川 (Edogawa),2013-11-19,16:01～17:00,0.0870,0.0761,0.0817,
江戸川 (Edogawa),2013-11-19,15:01～16:00,0.0878,0.0766,0.0827,
江戸川 (Edogawa),2013-11-19,14:01～15:00,0.0884,0.0744,0.0823,
江戸川 (Edogawa),2013-11-19,13:01～14:00,0.0888,0.0764,0.0828,
江戸川 (Edogawa),2013-11-19,12:01～13:00,0.0868,0.0764,0.0825,
江戸川 (Edogawa),2013-11-19,11:01～12:00,0.0881,0.0775,0.0831,
江戸川 (Edogawa),2013-11-19,10:01～11:00,0.0897,0.0759,0.0826,
江戸川 (Edogawa),2013-11-19,09:01～10:00,0.0881,0.0774,0.0825,
江戸川 (Edogawa),2013-11-19,08:01～09:00,0.0872,0.0763,0.0814,
江戸川 (Edogawa),2013-11-19,07:01～08:00,0.0870,0.0732,0.0812,
江戸川 (Edogawa),2013-11-19,06:01～07:00,0.0886,0.0759,0.0810,
江戸川 (Edogawa),2013-11-19,05:01～06:00,0.0856,0.0756,0.0812,
江戸川 (Edogawa),2013-11-19,04:01～05:00,0.0879,0.0776,0.0819,
江戸川 (Edogawa),2013-11-19,03:01～04:00,0.0873,0.0759,0.0820,
江戸川 (Edogawa),2013-11-19,02:01～03:00,0.0896,0.0769,0.0824,
江戸川 (Edogawa),2013-11-19,01:01～02:00,0.0871,0.0768,0.0823,
江戸川 (Edogawa),2013-11-19,00:01～01:00,0.0883,0.0759,0.0825,
江戸川 (Edogawa),2013-11-18,23:01～24:00,0.0874,0.0781,0.0823,
江戸川 (Edogawa),2013-11-18,22:01～23:00,0.0881,0.0770,0.0824,
江戸川 (Edogawa),2013-11-18,21:01～22:00,0.0880,0.0773,0.0820,
江戸川 (Edogawa),2013-11-18,20:01～21:00,0.0878,0.0754,0.0825,
江戸川 (Edogawa),2013-11-18,19:01～20:00,0.0868,0.0753,0.0818,
江戸川 (Edogawa),2013-11-18,18:01～19:00,0.0876,0.0750,0.0817,
江戸川 (Edogawa),2013-11-18,17:01～18:00,0.0887,0.0767,0.0825,
江戸川 (Edogawa),2013-11-18,16:01～17:00,0.0871,0.0786,0.0827,
江戸川 (Edogawa),2013-11-18,15:01～16:00,0.0871,0.0764,0.0827,
江戸川 (Edogawa),2013-11-18,14:01～15:00,0.0877,0.0772,0.0831,
江戸川 (Edogawa),2013-11-18,13:01～14:00,0.0895,0.0791,0.0829,
江戸川 (Edogawa),2013-11-18,12:01～13:00,0.0882,0.0746,0.0829,
江戸川 (Edogawa),2013-11-18,11:01～12:00,0.0899,0.0783,0.0839,
江戸川 (Edogawa),2013-11-18,10:01～11:00,0.0903,0.0785,0.0842,
江戸川 (Edogawa),2013-11-18,09:01～10:00,0.0895,0.0765,0.0832,
江戸川 (Edogawa),2013-11-18,08:01～09:00,0.0867,0.0781,0.0828,
江戸川 (Edogawa),2013-11-18,07:01～08:00,0.0889,0.0782,0.0824,
江戸川 (Edogawa),2013-11-18,06:01～07:00,0.0907,0.0766,0.0829,
江戸川 (Edogawa),2013-11-18,05:01～06:00,0.0867,0.0766,0.0822,
江戸川 (Edogawa),2013-11-18,04:01～05:00,0.0874,0.0765,0.0824,
江戸川 (Edogawa),2013-11-18,03:01～04:00,0.0873,0.0758,0.0825,
江戸川 (Edogawa),2013-11-18,02:01～03:00,0.0901,0.0762,0.0826,
江戸川 (Edogawa),2013-11-18,01:01～02:00,0.0892,0.0773,0.0825,
江戸川 (Edogawa),2013-11-18,00:01～01:00,0.0901,0.0786,0.0827,
